User: anonymous   Login
Location: 81360 Arifat, France
(43.7204°N, 2.3408°E)
Time: 06:24:06
(UTC+02:00)
Language:

Tiangong - Orbit

View from above orbital plane
View from above orbital plane
View from above satellite
View from above satellite

Ground track
Ground track

The orbit data is extracted from the following two-line orbital elements,

1 48274U 21035A   21290.91311507  .00013172  00000-0  15323-3 0  9998
2 48274  41.4699 254.5878 0002234 253.0059 156.4771 15.61477670 26894
Epoch (UTC): 17 October 2021 21:54:53
Eccentricity: 0.0002234
inclination: 41.4699°
perigee height: 382 km
apogee height: 385 km
right ascension of ascending node: 254.5878°
argument of perigee: 253.0059°
revolutions per day: 15.61477670
mean anomaly at epoch: 156.4771°
orbit number at epoch: 2689

The dashed part of the orbit path shows where the satellite is in the earth's shadow,  

DLR